Total_Precipitation_Accumulation
0.00 0.01 0.01 0.00 0.00 0.00 0.00 0.00 0.01 0.02 0.14 0.36 0.59 0.81 0.85 0.61 0.55 0.66 0.61 0.47 0.40 0.46 0.47 0.36 0.24 0.20 0.18 0.12 0.11 0.11 0.09 0.08 0.07 0.01 0.01 0.01 0.03 0.05 0.08 0.12 0.14 0.13 0.12
0.00 0.00 0.01 0.00 0.01 0.00 0.00 0.00 0.00 0.00 0.03 0.14 0.38 0.68 0.73 0.70 0.51 0.48 0.50 0.46 0.39 0.28 0.23 0.27 0.23 0.15 0.07 0.05 0.05 0.04 0.04 0.04 0.10 0.12 0.13 0.19 0.26 0.21 0.15 0.10 0.08 0.06 0.05
0.00 0.00 0.01 0.00 0.01 0.01 0.00 0.00 0.00 0.00 0.00 0.03 0.06 0.22 0.45 0.45 0.57 0.46 0.37 0.30 0.27 0.21 0.20 0.15 0.12 0.07 0.04 0.03 0.03 0.04 0.07 0.18 0.33 0.40 0.35 0.26 0.20 0.17 0.15 0.12 0.08 0.06 0.06
0.00 0.00 0.00 0.01 0.01 0.01 0.00 0.00 0.00 0.00 0.00 0.01 0.01 0.02 0.11 0.19 0.29 0.43 0.29 0.23 0.18 0.10 0.07 0.06 0.02 0.01 0.01 0.00 0.01 0.10 0.23 0.36 0.37 0.33 0.30 0.29 0.24 0.16 0.09 0.06 0.03 0.02 0.02
0.00 0.00 0.00 0.01 0.01 0.01 0.00 0.00 0.00 0.00 0.00 0.00 0.00 0.01 0.03 0.06 0.16 0.18 0.14 0.06 0.07 0.02 0.01 0.02 0.01 0.04 0.04 0.06 0.10 0.15 0.18 0.20 0.23 0.27 0.25 0.19 0.13 0.09 0.06 0.03 0.01 0.00 0.00
0.00 0.00 0.00 0.01 0.01 0.01 0.01 0.00 0.00 0.00 0.00 0.00 0.00 0.00 0.01 0.02 0.08 0.09 0.07 0.02 0.02 0.02 0.03 0.03 0.06 0.12 0.11 0.19 0.21 0.24 0.26 0.29 0.24 0.19 0.19 0.17 0.13 0.06 0.02 0.00 0.00 0.00 0.00
0.00 0.00 0.00 0.00 0.00 0.00 0.01 0.01 0.00 0.01 0.01 0.01 0.01 0.01 0.01 0.02 0.07 0.04 0.04 0.02 0.04 0.06 0.07 0.10 0.14 0.24 0.28 0.18 0.31 0.31 0.30 0.31 0.25 0.20 0.14 0.08 0.03 0.02 0.01 0.00 0.00 0.00 0.01
0.12 0.00 0.00 0.00 0.00 0.00 0.00 0.00 0.00 0.02 0.02 0.03 0.03 0.04 0.02 0.05 0.09 0.05 0.06 0.03 0.08 0.11 0.13 0.16 0.21 0.29 0.40 0.39 0.33 0.31 0.27 0.16 0.08 0.03 0.02 0.01 0.01 0.01 0.01 0.01 0.01 0.01 0.00
0.27 0.17 0.04 0.00 0.00 0.00 0.00 0.01 0.02 0.03 0.05 0.04 0.05 0.05 0.05 0.07 0.15 0.10 0.07 0.03 0.08 0.14 0.21 0.30 0.35 0.41 0.56 0.42 0.23 0.12 0.06 0.03 0.01 0.00 0.00 0.00 0.00 0.01 0.01 0.00 0.00 0.00 0.00
0.16 0.16 0.15 0.06 0.01 0.00 0.01 0.02 0.03 0.04 0.05 0.07 0.09 0.11 0.13 0.07 0.17 0.13 0.10 0.03 0.11 0.22 0.31 0.43 0.45 0.30 0.28 0.16 0.06 0.03 0.02 0.01 0.00 0.00 0.00 0.00 0.00 0.01 0.01 0.01 0.01 0.00 0.00
0.19 0.19 0.17 0.12 0.07 0.02 0.03 0.04 0.06 0.09 0.09 0.10 0.11 0.08 0.08 0.11 0.20 0.18 0.15 0.04 0.07 0.13 0.19 0.22 0.25 0.21 0.10 0.06 0.04 0.04 0.04 0.02 0.01 0.01 0.00 0.00 0.00 0.00 0.00 0.00 0.00 0.00 0.00
0.21 0.20 0.22 0.24 0.16 0.06 0.03 0.03 0.05 0.07 0.09 0.09 0.10 0.09 0.10 0.15 0.23 0.20 0.18 0.18 0.22 0.22 0.32 0.34 0.32 0.27 0.19 0.14 0.11 0.09 0.07 0.05 0.03 0.01 0.00 0.00 0.00 0.00 0.00 0.00 0.00 0.00 0.00
0.33 0.36 0.34 0.31 0.38 0.37 0.26 0.23 0.18 0.15 0.15 0.13 0.13 0.18 0.23 0.25 0.37 0.35 0.31 0.31 0.27 0.21 0.24 0.23 0.20 0.16 0.14 0.13 0.11 0.07 0.05 0.03 0.02 0.01 0.00 0.00 0.00 0.00 0.00 0.00 0.00 0.00 0.00
0.11 0.14 0.20 0.35 0.31 0.32 0.41 0.45 0.49 0.53 0.50 0.52 0.50 0.45 0.38 0.36 0.35 0.35 0.31 0.29 0.28 0.23 0.18 0.16 0.15 0.14 0.12 0.09 0.07 0.05 0.03 0.02 0.01 0.00 0.00 0.00 0.00 0.00 0.00 0.00 0.00 0.00 0.00
0.07 0.07 0.10 0.11 0.10 0.12 0.19 0.25 0.27 0.34 0.34 0.38 0.45 0.48 0.51 0.62 0.68 0.64 0.51 0.40 0.33 0.29 0.27 0.23 0.19 0.14 0.09 0.05 0.03 0.01 0.00 0.00 0.00 0.00 0.00 0.00 0.00 0.00 0.00 0.00 0.00 0.00 0.00
0.15 0.18 0.23 0.17 0.18 0.21 0.28 0.56 0.65 0.77 0.82 0.82 0.90 0.90 0.95 0.86 0.79 0.63 0.47 0.33 0.23 0.15 0.08 0.06 0.04 0.03 0.01 0.01 0.00 0.00 0.00 0.00 0.00 0.00 0.00 0.00 0.00 0.00 0.00 0.00 0.00 0.00 0.00
0.15 0.15 0.24 0.22 0.27 0.32 0.40 0.47 0.76 0.92 0.79 0.69 0.58 0.44 0.29 0.22 0.17 0.14 0.11 0.08 0.05 0.03 0.03 0.01 0.01 0.00 0.00 0.00 0.00 0.00 0.00 0.00 0.00 0.00 0.00 0.00 0.00 0.00 0.00 0.00 0.00 0.00 0.00
0.35 0.39 0.33 0.43 0.53 0.61 0.64 0.66 0.61 0.59 0.59 0.55 0.41 0.30 0.22 0.16 0.11 0.07 0.05 0.04 0.03 0.02 0.01 0.00 0.00 0.00 0.00 0.00 0.00 0.00 0.00 0.00 0.00 0.00 0.00 0.00 0.00 0.00 0.00 0.00 0.00 0.00 0.00
0.64 0.74 0.78 0.80 0.75 0.65 0.58 0.50 0.41 0.32 0.26 0.24 0.19 0.14 0.10 0.07 0.06 0.04 0.02 0.01 0.01 0.00 0.00 0.00 0.00 0.00 0.00 0.00 0.00 0.00 0.00 0.00 0.00 0.00 0.00 0.00 0.00 0.00 0.00 0.00 0.00 0.00 0.00
0.70 0.62 0.49 0.38 0.37 0.34 0.29 0.22 0.18 0.14 0.12 0.10 0.08 0.06 0.03 0.02 0.01 0.00 0.00 0.00 0.00 0.00 0.00 0.00 0.00 0.00 0.00 0.00 0.00 0.00 0.00 0.00 0.00 0.00 0.00 0.00 0.00 0.00 0.00 0.00 0.00 0.00 0.00
0.36 0.37 0.30 0.22 0.18 0.14 0.11 0.09 0.07 0.06 0.05 0.03 0.02 0.01 0.00 0.00 0.00 0.00 0.00 0.00 0.00 0.00 0.00 0.00 0.00 0.00 0.00 0.00 0.00 0.00 0.00 0.00 0.00 0.00 0.00 0.00 0.00 0.00 0.00 0.00 0.00 0.00 0.00
0.13 0.11 0.08 0.05 0.04 0.03 0.03 0.03 0.02 0.01 0.01 0.01 0.01 0.00 0.00 0.00 0.00 0.00 0.00 0.00 0.00 0.00 0.00 0.00 0.00 0.00 0.00 0.00 0.00 0.00 0.00 0.00 0.00 0.00 0.00 0.00 0.00 0.00 0.00 0.00 0.00 0.00 0.00
0.08 0.04 0.02 0.01 0.01 0.00 0.00 0.00 0.00 0.00 0.00 0.00 0.00 0.00 0.00 0.00 0.00 0.00 0.00 0.00 0.00 0.00 0.00 0.00 0.00 0.00 0.00 0.00 0.00 0.00 0.00 0.00 0.01 0.01 0.00 0.00 0.00 0.00 0.00 0.01 0.00 0.00 0.00
0.01 0.01 0.01 0.01 0.01 0.00 0.00 0.00 0.00 0.00 0.00 0.00 0.00 0.00 0.00 0.00 0.00 0.00 0.00 0.00 0.00 0.00 0.00 0.00 0.00 0.00 0.00 0.00 0.00 0.00 0.01 0.01 0.00 0.00 0.00 0.00 0.00 0.00 0.00 0.00 0.00 0.01 0.01
0.00 0.00 0.00 0.00 0.00 0.00 0.00 0.00 0.00 0.00 0.00 0.00 0.00 0.00 0.00 0.00 0.00 0.00 0.00 0.00 0.00 0.00 0.00 0.00 0.00 0.00 0.00 0.00 0.00 0.00 0.01 0.00 0.00 0.00 0.00 0.00 0.01 0.01 0.01 0.01 0.01 0.01 0.00
0.00 0.00 0.00 0.00 0.00 0.00 0.00 0.00 0.00 0.00 0.00 0.00 0.00 0.00 0.00 0.00 0.00 0.00 0.00 0.00 0.00 0.00 0.00 0.00 0.00 0.00 0.00 0.00 0.00 0.00 0.00 0.00 0.00 0.00 0.00 0.00 0.01 0.00 0.01 0.01 0.00 0.00 0.00